sat.trackr.live / text

‹ back to catalog

STARLINK-5615

NORAD 55425 · 2023-014AL

PAYLOAD ACTIVE UNKNOWN

§ Identity

Operator
Country
US
Launch date
2023-01-31
Launch site
AFWTR
Launch vehicle
Mass (kg)
RCS (m²)

Purposes: comms

External: N2YO · Heavens-Above · Gunter

§ Orbital elements

Epoch: 2026-05-25T05:05:33.723168Z

Period
96.11 min
Inclination
69.9992°
Eccentricity
0.0003291
Mean motion
14.98329112 rev/d
Perigee alt
569.8 km
Apogee alt
574.3 km
Semi-major
6,950.2 km
B*
3.8987e-5
RAAN
251.5475°
Arg perigee
272.4164°
Mean anomaly
87.6618°
Rev number
18,302

§ Raw data

STARLINK-56151 55425U 23014AL  26145.21219587  .00000372  00000+0  38987-4 0  99942 55425  69.9992 251.5475 0003291 272.4164  87.6618 14.98329112183027

JSON: /api/v1/satellites/55425 · /tle

For live sub-satellite position, see the globe view (requires WebGL).

§ Visibility from observer

Set your observer location to see the next 7 days of passes ≥ 10°. The values pass through the URL so the page stays shareable.

No JS? Fill the form by hand. The geolocation button needs JavaScript.